Terug naar catalogus

VENESAT-1

ActiefCommunicatieGEO
NORAD 33414·PAYLOAD·🇻🇪 Venezuela

Gelanceerd Oct 29, 2008 vanaf Xichang Satellite Launch Center

Loading…

TLE

VersSource: Space-Track

Epoch: Sep 14, 2026, 18:56 UTC

1 33414U 08055A   26257.78905433 -.00000159  00000-0  00000-0 0  9990
2 33414   5.9827  71.8885 0065047 194.1540  12.0510  0.99274097 65345

Volg VENESAT-1 in realtime met AllMySat

Download on the App Store